Time,TemperatureF,DewpointF,PressureIn,WindDirection,WindDirectionDegrees,WindSpeedMPH,WindSpeedGustMPH,Humidity,HourlyPrecipIn,Conditions,Clouds,dailyrainin,SoftwareType,DateUTC
2013-04-18 07:41:00,44.4,40.5,30.42,ESE,113,7.0,7.0,86,0.00,,,0.00,meteohub,2013-04-18 11:41:00,
2013-04-18 07:42:00,44.4,40.5,30.42,ESE,113,7.0,7.0,86,0.00,,,0.00,meteohub,2013-04-18 11:42:00,
2013-04-18 07:45:00,44.8,40.8,30.42,ESE,113,7.0,7.0,86,0.00,,,0.00,meteohub,2013-04-18 11:45:00,
2013-04-18 07:49:00,44.8,40.8,30.42,SE,135,9.0,9.0,86,0.00,,,0.00,meteohub,2013-04-18 11:49:00,
2013-04-18 07:54:00,44.8,40.5,30.42,ESE,113,8.0,8.0,85,0.00,,,0.00,meteohub,2013-04-18 11:54:00,
2013-04-18 07:59:00,45.0,41.0,30.42,SSE,158,9.0,9.0,86,0.00,,,0.00,meteohub,2013-04-18 11:59:00,
2013-04-18 08:04:00,45.5,41.5,30.41,SSE,158,12.0,12.0,86,0.00,,,0.00,meteohub,2013-04-18 12:04:00,
2013-04-18 08:09:00,45.7,41.4,30.41,SE,135,9.0,10.0,85,0.00,,,0.00,meteohub,2013-04-18 12:09:00,
2013-04-18 08:14:00,45.7,41.4,30.41,SE,135,6.0,12.0,85,0.00,,,0.00,meteohub,2013-04-18 12:14:00,
2013-04-18 08:19:00,46.2,41.9,30.41,SE,135,5.0,12.0,85,0.00,,,0.00,meteohub,2013-04-18 12:19:00,
2013-04-18 08:25:00,46.2,41.9,30.41,SSE,158,14.0,14.0,85,0.00,,,0.00,meteohub,2013-04-18 12:25:00,
2013-04-18 08:30:00,46.8,42.3,30.41,SSE,158,17.0,17.0,84,0.00,,,0.00,meteohub,2013-04-18 12:30:00,
2013-04-18 08:35:00,46.9,42.4,30.41,SE,135,16.0,17.0,84,0.00,,,0.00,meteohub,2013-04-18 12:35:00,
2013-04-18 08:40:00,47.3,42.4,30.41,SSE,158,11.0,17.0,83,0.00,,,0.00,meteohub,2013-04-18 12:40:00,
2013-04-18 08:45:00,47.7,42.4,30.42,SSE,158,11.0,17.0,82,0.00,,,0.00,meteohub,2013-04-18 12:45:00,
2013-04-18 08:50:00,47.8,42.3,30.42,SSE,158,9.0,13.0,81,0.00,,,0.00,meteohub,2013-04-18 12:50:00,
2013-04-18 08:55:00,48.0,42.4,30.42,SE,135,8.0,13.0,81,0.00,,,0.00,meteohub,2013-04-18 12:55:00,
2013-04-18 09:00:00,48.4,42.4,30.42,SE,135,16.0,16.0,80,0.00,,,0.00,meteohub,2013-04-18 13:00:00,
2013-04-18 09:05:00,48.7,42.4,30.41,SE,135,11.0,17.0,79,0.00,,,0.00,meteohub,2013-04-18 13:05:00,
2013-04-18 09:10:00,49.1,42.8,30.41,SE,135,11.0,17.0,79,0.00,,,0.00,meteohub,2013-04-18 13:10:00,
2013-04-18 09:16:00,49.3,42.8,30.41,South,180,13.0,17.0,78,0.00,,,0.00,meteohub,2013-04-18 13:16:00,
2013-04-18 09:21:00,49.3,42.8,30.41,SSE,158,12.0,16.0,78,0.00,,,0.00,meteohub,2013-04-18 13:21:00,
2013-04-18 09:26:00,49.6,42.8,30.41,SE,135,8.0,17.0,77,0.00,,,0.00,meteohub,2013-04-18 13:26:00,
2013-04-18 09:31:00,50.0,43.2,30.41,SSE,158,15.0,17.0,77,0.00,,,0.00,meteohub,2013-04-18 13:31:00,
2013-04-18 09:36:00,50.0,43.2,30.41,SE,135,13.0,17.0,77,0.00,,,0.00,meteohub,2013-04-18 13:36:00,
2013-04-18 09:42:00,50.5,43.3,30.41,SE,135,13.0,17.0,76,0.00,,,0.00,meteohub,2013-04-18 13:42:00,
2013-04-18 09:47:00,50.7,43.2,30.41,SSE,158,11.0,15.0,75,0.00,,,0.00,meteohub,2013-04-18 13:47:00,
2013-04-18 09:52:00,50.7,43.2,30.41,SE,135,17.0,17.0,75,0.00,,,0.00,meteohub,2013-04-18 13:52:00,
2013-04-18 09:57:00,50.9,43.3,30.41,SSE,158,14.0,17.0,75,0.00,,,0.00,meteohub,2013-04-18 13:57:00,
2013-04-18 10:02:00,51.1,43.2,30.42,ESE,113,11.0,17.0,74,0.00,,,0.00,meteohub,2013-04-18 14:02:00,
2013-04-18 10:07:00,51.3,43.3,30.42,SE,135,10.0,17.0,74,0.00,,,0.00,meteohub,2013-04-18 14:07:00,
2013-04-18 10:12:00,51.4,43.5,30.42,SE,135,15.0,15.0,74,0.00,,,0.00,meteohub,2013-04-18 14:12:00,
2013-04-18 10:17:00,51.8,43.3,30.42,SSE,158,16.0,20.0,73,0.00,,,0.00,meteohub,2013-04-18 14:17:00,
2013-04-18 10:22:00,51.8,43.3,30.42,SE,135,14.0,20.0,73,0.00,,,0.00,meteohub,2013-04-18 14:22:00,
2013-04-18 10:27:00,52.0,43.5,30.42,SE,135,11.0,20.0,73,0.00,,,0.00,meteohub,2013-04-18 14:27:00,
2013-04-18 10:32:00,52.2,43.7,30.42,South,180,14.0,19.0,73,0.00,,,0.00,meteohub,2013-04-18 14:32:00,
2013-04-18 10:37:00,52.5,44.1,30.42,SE,135,10.0,19.0,73,0.00,,,0.00,meteohub,2013-04-18 14:37:00,
2013-04-18 10:42:00,52.7,44.2,30.42,South,180,17.0,17.0,73,0.00,,,0.00,meteohub,2013-04-18 14:42:00,
2013-04-18 10:47:00,52.7,44.2,30.42,SSE,158,10.0,17.0,73,0.00,,,0.00,meteohub,2013-04-18 14:47:00,
2013-04-18 10:52:00,52.9,44.4,30.42,SE,135,11.0,17.0,73,0.00,,,0.00,meteohub,2013-04-18 14:52:00,
2013-04-18 10:57:00,52.9,44.4,30.42,SSE,158,13.0,17.0,73,0.00,,,0.00,meteohub,2013-04-18 14:57:00,
2013-04-18 11:02:00,53.1,44.6,30.42,SSE,158,10.0,13.0,73,0.00,,,0.00,meteohub,2013-04-18 15:02:00,
2013-04-18 11:07:00,53.4,45.0,30.42,SE,135,9.0,13.0,73,0.00,,,0.00,meteohub,2013-04-18 15:07:00,
2013-04-18 11:12:00,53.4,45.0,30.42,SSE,158,14.0,14.0,73,0.00,,,0.00,meteohub,2013-04-18 15:12:00,
2013-04-18 11:17:00,53.6,45.1,30.42,SSE,158,14.0,16.0,73,0.00,,,0.00,meteohub,2013-04-18 15:17:00,
2013-04-18 11:22:00,53.6,44.8,30.41,South,180,13.0,16.0,72,0.00,,,0.00,meteohub,2013-04-18 15:22:00,
2013-04-18 11:28:00,53.8,45.0,30.41,SSE,158,17.0,17.0,72,0.00,,,0.00,meteohub,2013-04-18 15:28:00,
2013-04-18 11:33:00,54.0,45.1,30.41,SSE,158,16.0,16.0,72,0.00,,,0.00,meteohub,2013-04-18 15:33:00,
2013-04-18 11:38:00,54.3,45.5,30.41,SSE,158,11.0,17.0,72,0.00,,,0.00,meteohub,2013-04-18 15:38:00,
2013-04-18 11:43:00,54.9,46.0,30.42,South,180,9.0,17.0,72,0.00,,,0.00,meteohub,2013-04-18 15:43:00,
2013-04-18 11:48:00,55.0,46.2,30.42,SSE,158,12.0,16.0,72,0.00,,,0.00,meteohub,2013-04-18 15:48:00,
2013-04-18 11:54:00,55.0,45.9,30.42,SSE,158,14.0,14.0,71,0.00,,,0.00,meteohub,2013-04-18 15:54:00,
2013-04-18 11:59:00,55.0,46.2,30.42,SE,135,13.0,14.0,72,0.00,,,0.00,meteohub,2013-04-18 15:59:00,
2013-04-18 12:04:00,55.2,46.0,30.42,South,180,11.0,14.0,71,0.00,,,0.00,meteohub,2013-04-18 16:04:00,
2013-04-18 12:09:00,55.2,46.0,30.42,SE,135,11.0,14.0,71,0.00,,,0.00,meteohub,2013-04-18 16:09:00,
2013-04-18 12:14:00,55.2,46.0,30.42,SE,135,11.0,13.0,71,0.00,,,0.00,meteohub,2013-04-18 16:14:00,
2013-04-18 12:19:00,57.0,47.7,30.42,SE,135,10.0,13.0,71,0.00,,,0.00,meteohub,2013-04-18 16:19:00,
2013-04-18 12:24:00,58.1,48.0,30.41,South,180,12.0,12.0,69,0.00,,,0.00,meteohub,2013-04-18 16:24:00,
2013-04-18 12:30:00,59.9,48.9,30.41,SSE,158,8.0,11.0,67,0.00,,,0.00,meteohub,2013-04-18 16:30:00,
2013-04-18 12:35:00,60.3,48.9,30.41,SE,135,14.0,14.0,66,0.00,,,0.00,meteohub,2013-04-18 16:35:00,
2013-04-18 12:40:00,60.6,48.4,30.41,SSE,158,13.0,14.0,64,0.00,,,0.00,meteohub,2013-04-18 16:40:00,
2013-04-18 12:45:00,60.8,48.6,30.40,SSE,158,11.0,14.0,64,0.00,,,0.00,meteohub,2013-04-18 16:45:00,
2013-04-18 12:50:00,60.8,48.2,30.40,SSE,158,14.0,14.0,63,0.00,,,0.00,meteohub,2013-04-18 16:50:00,
2013-04-18 12:56:00,61.2,48.4,30.40,SSE,158,11.0,14.0,63,0.00,,,0.00,meteohub,2013-04-18 16:56:00,
2013-04-18 13:01:00,61.3,48.2,30.40,SE,135,9.0,14.0,62,0.00,,,0.00,meteohub,2013-04-18 17:01:00,
2013-04-18 13:07:00,60.8,47.3,30.39,South,180,12.0,16.0,61,0.00,,,0.00,meteohub,2013-04-18 17:07:00,
2013-04-18 13:12:00,61.0,47.5,30.39,South,180,10.0,16.0,61,0.00,,,0.00,meteohub,2013-04-18 17:12:00,
2013-04-18 13:17:00,60.8,47.3,30.39,South,180,12.0,16.0,61,0.00,,,0.00,meteohub,2013-04-18 17:17:00,
2013-04-18 13:22:00,60.6,46.6,30.38,SSE,158,11.0,14.0,60,0.00,,,0.00,meteohub,2013-04-18 17:22:00,
2013-04-18 13:27:00,60.4,46.4,30.38,SSE,158,17.0,17.0,60,0.00,,,0.00,meteohub,2013-04-18 17:27:00,
2013-04-18 13:32:00,60.1,46.2,30.38,SSE,158,15.0,17.0,60,0.00,,,0.00,meteohub,2013-04-18 17:32:00,
2013-04-18 13:37:00,60.3,46.8,30.38,SSE,158,15.0,17.0,61,0.00,,,0.00,meteohub,2013-04-18 17:37:00,
2013-04-18 13:42:00,60.3,46.8,30.38,SE,135,17.0,17.0,61,0.00,,,0.00,meteohub,2013-04-18 17:42:00,
2013-04-18 13:47:00,59.5,46.0,30.38,SE,135,18.0,18.0,61,0.00,,,0.00,meteohub,2013-04-18 17:47:00,
2013-04-18 13:52:00,59.4,46.4,30.38,SSE,158,13.0,18.0,62,0.00,,,0.00,meteohub,2013-04-18 17:52:00,
2013-04-18 13:57:00,59.0,46.0,30.38,South,180,10.0,18.0,62,0.00,,,0.00,meteohub,2013-04-18 17:57:00,
2013-04-18 14:02:00,58.3,45.3,30.38,South,180,14.0,18.0,62,0.00,,,0.00,meteohub,2013-04-18 18:02:00,
2013-04-18 14:07:00,58.1,45.5,30.38,SSE,158,8.0,14.0,63,0.00,,,0.00,meteohub,2013-04-18 18:07:00,
2013-04-18 14:12:00,58.1,45.5,30.38,SSE,158,11.0,14.0,63,0.00,,,0.00,meteohub,2013-04-18 18:12:00,
2013-04-18 14:17:00,58.6,46.6,30.38,South,180,10.0,15.0,64,0.00,,,0.00,meteohub,2013-04-18 18:17:00,
2013-04-18 14:22:00,59.0,46.4,30.38,South,180,14.0,15.0,63,0.00,,,0.00,meteohub,2013-04-18 18:22:00,
2013-04-18 14:27:00,59.4,46.4,30.38,South,180,10.0,14.0,62,0.00,,,0.00,meteohub,2013-04-18 18:27:00,
2013-04-18 14:32:00,59.4,46.4,30.38,South,180,16.0,16.0,62,0.00,,,0.00,meteohub,2013-04-18 18:32:00,
2013-04-18 14:37:00,59.2,45.3,30.38,South,180,17.0,17.0,60,0.00,,,0.00,meteohub,2013-04-18 18:37:00,
2013-04-18 14:42:00,59.0,44.8,30.37,South,180,18.0,18.0,59,0.00,,,0.00,meteohub,2013-04-18 18:42:00,
2013-04-18 14:47:00,59.0,44.8,30.37,South,180,17.0,18.0,59,0.00,,,0.00,meteohub,2013-04-18 18:47:00,
2013-04-18 14:52:00,59.5,44.8,30.37,South,180,18.0,18.0,58,0.00,,,0.00,meteohub,2013-04-18 18:52:00,
2013-04-18 14:57:00,59.4,44.6,30.37,South,180,11.0,21.0,58,0.00,,,0.00,meteohub,2013-04-18 18:57:00,
2013-04-18 15:03:00,59.4,43.7,30.36,South,180,15.0,21.0,56,0.00,,,0.00,meteohub,2013-04-18 19:03:00,
2013-04-18 15:08:00,59.5,43.9,30.36,South,180,18.0,18.0,56,0.00,,,0.00,meteohub,2013-04-18 19:08:00,
2013-04-18 15:13:00,59.2,43.5,30.36,SSE,158,16.0,18.0,56,0.00,,,0.00,meteohub,2013-04-18 19:13:00,
2013-04-18 15:18:00,58.8,42.6,30.36,South,180,15.0,21.0,55,0.00,,,0.00,meteohub,2013-04-18 19:18:00,
2013-04-18 15:23:00,58.3,42.6,30.36,SSE,158,11.0,21.0,56,0.00,,,0.00,meteohub,2013-04-18 19:23:00,
2013-04-18 15:28:00,58.1,43.0,30.36,South,180,18.0,21.0,57,0.00,,,0.00,meteohub,2013-04-18 19:28:00,
2013-04-18 15:34:00,58.5,43.7,30.36,SSE,158,10.0,21.0,58,0.00,,,0.00,meteohub,2013-04-18 19:34:00,
2013-04-18 15:39:00,58.8,44.1,30.36,SSW,203,11.0,18.0,58,0.00,,,0.00,meteohub,2013-04-18 19:39:00,
2013-04-18 15:44:00,59.0,44.2,30.35,South,180,13.0,18.0,58,0.00,,,0.00,meteohub,2013-04-18 19:44:00,
2013-04-18 15:49:00,59.2,44.8,30.35,SSE,158,12.0,15.0,59,0.00,,,0.00,meteohub,2013-04-18 19:49:00,
2013-04-18 15:54:00,58.6,43.9,30.35,SSE,158,10.0,15.0,58,0.00,,,0.00,meteohub,2013-04-18 19:54:00,
2013-04-18 15:59:00,58.1,43.3,30.35,SSE,158,10.0,13.0,58,0.00,,,0.00,meteohub,2013-04-18 19:59:00,
2013-04-18 16:05:00,57.9,43.7,30.35,SSE,158,14.0,14.0,59,0.00,,,0.00,meteohub,2013-04-18 20:05:00,
2013-04-18 16:10:00,57.6,43.3,30.35,SSE,158,12.0,14.0,59,0.00,,,0.00,meteohub,2013-04-18 20:10:00,
2013-04-18 16:15:00,57.4,43.2,30.35,South,180,13.0,14.0,59,0.00,,,0.00,meteohub,2013-04-18 20:15:00,
2013-04-18 16:20:00,57.4,43.7,30.35,South,180,14.0,14.0,60,0.00,,,0.00,meteohub,2013-04-18 20:20:00,
2013-04-18 16:26:00,57.2,43.9,30.33,South,180,10.0,14.0,61,0.00,,,0.00,meteohub,2013-04-18 20:26:00,
2013-04-18 16:31:00,57.0,43.7,30.33,SSE,158,11.0,14.0,61,0.00,,,0.00,meteohub,2013-04-18 20:31:00,
2013-04-18 16:36:00,56.5,43.7,30.33,SSE,158,12.0,14.0,62,0.00,,,0.00,meteohub,2013-04-18 20:36:00,
2013-04-18 16:41:00,56.3,43.5,30.32,South,180,12.0,13.0,62,0.00,,,0.00,meteohub,2013-04-18 20:41:00,
2013-04-18 16:47:00,55.9,43.5,30.32,SSE,158,13.0,16.0,63,0.00,,,0.00,meteohub,2013-04-18 20:47:00,
2013-04-18 16:52:00,55.8,43.7,30.32,SSE,158,12.0,16.0,64,0.00,,,0.00,meteohub,2013-04-18 20:52:00,
2013-04-18 16:57:00,55.6,43.5,30.32,South,180,13.0,16.0,64,0.00,,,0.00,meteohub,2013-04-18 20:57:00,
2013-04-18 17:02:00,55.6,43.5,30.32,SSE,158,15.0,15.0,64,0.00,,,0.00,meteohub,2013-04-18 21:02:00,
2013-04-18 17:07:00,55.4,43.9,30.31,SSE,158,7.0,15.0,65,0.00,,,0.00,meteohub,2013-04-18 21:07:00,
2013-04-18 17:12:00,55.0,43.5,30.31,SSE,158,9.0,15.0,65,0.00,,,0.00,meteohub,2013-04-18 21:12:00,
2013-04-18 17:17:00,55.0,43.5,30.31,SSE,158,15.0,15.0,65,0.00,,,0.00,meteohub,2013-04-18 21:17:00,
2013-04-18 17:22:00,54.7,43.5,30.31,SSE,158,8.0,15.0,66,0.00,,,0.00,meteohub,2013-04-18 21:22:00,
2013-04-18 17:27:00,54.7,43.5,30.31,SSE,158,10.0,15.0,66,0.00,,,0.00,meteohub,2013-04-18 21:27:00,
2013-04-18 17:32:00,54.5,43.7,30.31,SSE,158,8.0,15.0,67,0.00,,,0.00,meteohub,2013-04-18 21:32:00,
2013-04-18 17:37:00,54.3,43.5,30.31,South,180,7.0,10.0,67,0.00,,,0.00,meteohub,2013-04-18 21:37:00,
2013-04-18 17:42:00,54.1,43.9,30.30,South,180,11.0,11.0,68,0.00,,,0.00,meteohub,2013-04-18 21:42:00,
2013-04-18 17:47:00,53.8,43.5,30.30,SSE,158,7.0,11.0,68,0.00,,,0.00,meteohub,2013-04-18 21:47:00,
2013-04-18 17:52:00,53.6,43.3,30.30,SE,135,6.0,11.0,68,0.00,,,0.00,meteohub,2013-04-18 21:52:00,
2013-04-18 17:57:00,53.2,43.3,30.30,SSE,158,9.0,11.0,69,0.00,,,0.00,meteohub,2013-04-18 21:57:00,
2013-04-18 18:02:00,53.4,43.9,30.30,SE,135,7.0,9.0,70,0.00,,,0.00,meteohub,2013-04-18 22:02:00,
2013-04-18 18:07:00,52.9,43.7,30.30,SSE,158,10.0,10.0,71,0.00,,,0.00,meteohub,2013-04-18 22:07:00,
2013-04-18 18:12:00,52.7,43.5,30.30,SSE,158,9.0,10.0,71,0.00,,,0.00,meteohub,2013-04-18 22:12:00,
2013-04-18 18:17:00,52.5,43.3,30.30,SE,135,9.0,10.0,71,0.00,,,0.00,meteohub,2013-04-18 22:17:00,
2013-04-18 18:22:00,52.3,43.5,30.29,SE,135,10.0,10.0,72,0.00,,,0.00,meteohub,2013-04-18 22:22:00,
2013-04-18 18:27:00,52.3,43.5,30.29,SE,135,9.0,10.0,72,0.00,,,0.00,meteohub,2013-04-18 22:27:00,
2013-04-18 18:32:00,52.3,43.9,30.29,South,180,7.0,10.0,73,0.00,,,0.00,meteohub,2013-04-18 22:32:00,
2013-04-18 18:37:00,52.3,43.9,30.29,SSE,158,11.0,11.0,73,0.00,,,0.00,meteohub,2013-04-18 22:37:00,
2013-04-18 18:42:00,52.3,43.9,30.29,SSE,158,8.0,11.0,73,0.00,,,0.00,meteohub,2013-04-18 22:42:00,
2013-04-18 18:47:00,52.3,43.9,30.27,SSE,158,9.0,11.0,73,0.00,,,0.00,meteohub,2013-04-18 22:47:00,
2013-04-18 18:52:00,52.0,43.9,30.27,SSE,158,11.0,11.0,74,0.00,,,0.00,meteohub,2013-04-18 22:52:00,
2013-04-18 18:57:00,52.0,43.9,30.27,SSE,158,10.0,11.0,74,0.00,,,0.00,meteohub,2013-04-18 22:57:00,
2013-04-18 19:02:00,51.8,44.1,30.28,SSE,158,9.0,12.0,75,0.00,,,0.00,meteohub,2013-04-18 23:02:00,
2013-04-18 19:07:00,51.6,43.9,30.28,SSE,158,8.0,12.0,75,0.00,,,0.00,meteohub,2013-04-18 23:07:00,
2013-04-18 19:12:00,51.4,43.7,30.28,SSE,158,9.0,10.0,75,0.00,,,0.00,meteohub,2013-04-18 23:12:00,
2013-04-18 19:17:00,51.4,43.7,30.28,South,180,7.0,11.0,75,0.00,,,0.00,meteohub,2013-04-18 23:17:00,
2013-04-18 19:22:00,51.3,43.9,30.27,SSE,158,8.0,11.0,76,0.00,,,0.00,meteohub,2013-04-18 23:22:00,
2013-04-18 19:27:00,51.3,43.9,30.27,SSE,158,6.0,11.0,76,0.00,,,0.00,meteohub,2013-04-18 23:27:00,
2013-04-18 19:32:00,51.3,43.9,30.27,SSE,158,6.0,9.0,76,0.00,,,0.00,meteohub,2013-04-18 23:32:00,
2013-04-18 19:37:00,51.3,43.9,30.27,SSE,158,8.0,9.0,76,0.00,,,0.00,meteohub,2013-04-18 23:37:00,
2013-04-18 19:42:00,51.3,44.2,30.27,SSE,158,7.0,10.0,77,0.00,,,0.00,meteohub,2013-04-18 23:42:00,
2013-04-18 19:47:00,50.9,43.9,30.27,South,180,8.0,11.0,77,0.00,,,0.00,meteohub,2013-04-18 23:47:00,
2013-04-18 19:52:00,50.9,43.9,30.27,SE,135,7.0,11.0,77,0.00,,,0.00,meteohub,2013-04-18 23:52:00,
2013-04-18 19:57:00,50.7,43.7,30.27,SE,135,7.0,11.0,77,0.00,,,0.00,meteohub,2013-04-18 23:57:00,
2013-04-18 20:02:00,50.7,44.1,30.27,SSE,158,7.0,9.0,78,0.00,,,0.00,meteohub,2013-04-19 00:02:00,
2013-04-18 20:07:00,50.7,44.1,30.27,SSE,158,9.0,9.0,78,0.00,,,0.00,meteohub,2013-04-19 00:07:00,
2013-04-18 20:12:00,50.7,44.1,30.27,SSE,158,8.0,9.0,78,0.00,,,0.00,meteohub,2013-04-19 00:12:00,
2013-04-18 20:17:00,50.7,44.4,30.27,SSE,158,8.0,9.0,79,0.00,,,0.00,meteohub,2013-04-19 00:17:00,
2013-04-18 20:22:00,50.7,44.4,30.27,SE,135,4.0,9.0,79,0.00,,,0.00,meteohub,2013-04-19 00:22:00,
2013-04-18 20:27:00,50.7,44.4,30.27,South,180,8.0,8.0,79,0.00,,,0.00,meteohub,2013-04-19 00:27:00,
2013-04-18 20:32:00,50.7,44.4,30.27,SE,135,7.0,9.0,79,0.00,,,0.00,meteohub,2013-04-19 00:32:00,
2013-04-18 20:37:00,50.7,44.4,30.27,South,180,7.0,9.0,79,0.00,,,0.00,meteohub,2013-04-19 00:37:00,
2013-04-18 20:42:00,50.7,44.4,30.27,SSE,158,7.0,9.0,79,0.00,,,0.00,meteohub,2013-04-19 00:42:00,
2013-04-18 20:47:00,50.5,44.2,30.27,SSE,158,6.0,7.0,79,0.00,,,0.00,meteohub,2013-04-19 00:47:00,
2013-04-18 20:52:00,50.5,44.2,30.27,SSE,158,4.0,7.0,79,0.00,,,0.00,meteohub,2013-04-19 00:52:00,
2013-04-18 20:57:00,50.5,44.2,30.27,South,180,6.0,8.0,79,0.00,,,0.00,meteohub,2013-04-19 00:57:00,
2013-04-18 21:02:00,50.5,44.2,30.26,SSE,158,6.0,8.0,79,0.00,,,0.00,meteohub,2013-04-19 01:02:00,
2013-04-18 21:07:00,50.5,44.6,30.26,SSE,158,5.0,8.0,80,0.00,,,0.00,meteohub,2013-04-19 01:07:00,
2013-04-18 21:12:00,50.5,44.6,30.26,SSE,158,6.0,7.0,80,0.00,,,0.00,meteohub,2013-04-19 01:12:00,
2013-04-18 21:17:00,50.5,44.6,30.26,South,180,10.0,10.0,80,0.00,,,0.00,meteohub,2013-04-19 01:17:00,
2013-04-18 21:22:00,50.5,44.6,30.24,South,180,10.0,11.0,80,0.00,,,0.00,meteohub,2013-04-19 01:22:00,
2013-04-18 21:28:00,50.5,44.6,30.24,South,180,11.0,11.0,80,0.00,,,0.00,meteohub,2013-04-19 01:28:00,
2013-04-18 21:33:00,50.5,44.6,30.24,South,180,11.0,11.0,80,0.00,,,0.00,meteohub,2013-04-19 01:33:00,
2013-04-18 21:38:00,50.4,44.4,30.24,South,180,12.0,12.0,80,0.00,,,0.00,meteohub,2013-04-19 01:38:00,
2013-04-18 21:43:00,50.4,44.4,30.24,South,180,12.0,13.0,80,0.00,,,0.00,meteohub,2013-04-19 01:43:00,
2013-04-18 21:48:00,50.2,44.2,30.24,South,180,13.0,13.0,80,0.00,,,0.00,meteohub,2013-04-19 01:48:00,
2013-04-18 21:53:00,50.2,44.2,30.24,SSW,203,11.0,14.0,80,0.00,,,0.00,meteohub,2013-04-19 01:53:00,
2013-04-18 21:58:00,50.4,44.8,30.24,South,180,11.0,14.0,81,0.00,,,0.00,meteohub,2013-04-19 01:58:00,
2013-04-18 22:03:00,50.4,44.8,30.23,SSW,203,10.0,13.0,81,0.00,,,0.00,meteohub,2013-04-19 02:03:00,
2013-04-18 22:08:00,50.2,44.6,30.23,South,180,12.0,13.0,81,0.00,,,0.00,meteohub,2013-04-19 02:08:00,
2013-04-18 22:13:00,50.2,44.6,30.23,South,180,10.0,12.0,81,0.00,,,0.00,meteohub,2013-04-19 02:13:00,
2013-04-18 22:18:00,50.0,44.4,30.23,South,180,12.0,12.0,81,0.00,,,0.00,meteohub,2013-04-19 02:18:00,
2013-04-18 22:23:00,49.8,44.2,30.22,South,180,11.0,13.0,81,0.00,,,0.00,meteohub,2013-04-19 02:23:00,
2013-04-18 22:28:00,49.6,44.1,30.22,South,180,12.0,13.0,81,0.00,,,0.00,meteohub,2013-04-19 02:28:00,
2013-04-18 22:34:00,49.8,44.6,30.22,South,180,11.0,13.0,82,0.00,,,0.00,meteohub,2013-04-19 02:34:00,
2013-04-18 22:39:00,49.8,44.6,30.22,South,180,8.0,13.0,82,0.00,,,0.00,meteohub,2013-04-19 02:39:00,
2013-04-18 22:44:00,50.0,44.8,30.21,SSE,158,9.0,13.0,82,0.00,,,0.00,meteohub,2013-04-19 02:44:00,
2013-04-18 22:49:00,50.0,44.8,30.21,South,180,8.0,13.0,82,0.00,,,0.00,meteohub,2013-04-19 02:49:00,
2013-04-18 22:54:00,50.2,45.0,30.21,South,180,7.0,10.0,82,0.00,,,0.00,meteohub,2013-04-19 02:54:00,
2013-04-18 22:59:00,50.0,44.8,30.21,South,180,8.0,10.0,82,0.00,,,0.00,meteohub,2013-04-19 02:59:00,
2013-04-18 23:04:00,50.0,44.8,30.19,South,180,10.0,10.0,82,0.00,,,0.00,meteohub,2013-04-19 03:04:00,
2013-04-18 23:09:00,50.0,44.8,30.19,South,180,9.0,10.0,82,0.00,,,0.00,meteohub,2013-04-19 03:09:00,
2013-04-18 23:14:00,50.2,45.0,30.19,SSW,203,9.0,10.0,82,0.00,,,0.00,meteohub,2013-04-19 03:14:00,
2013-04-18 23:19:00,50.2,45.0,30.19,South,180,9.0,11.0,82,0.00,,,0.00,meteohub,2013-04-19 03:19:00,
2013-04-18 23:24:00,50.2,45.0,30.18,SSW,203,9.0,11.0,82,0.00,,,0.00,meteohub,2013-04-19 03:24:00,
2013-04-18 23:30:00,50.4,45.1,30.18,SW,225,8.0,11.0,82,0.00,,,0.00,meteohub,2013-04-19 03:30:00,
2013-04-18 23:35:00,50.5,45.5,30.18,SSW,203,11.0,11.0,83,0.00,,,0.00,meteohub,2013-04-19 03:35:00,
2013-04-18 23:40:00,50.5,45.5,30.18,South,180,13.0,13.0,83,0.00,,,0.00,meteohub,2013-04-19 03:40:00,
2013-04-18 23:45:00,50.7,45.7,30.18,SSW,203,11.0,13.0,83,0.00,,,0.00,meteohub,2013-04-19 03:45:00,
2013-04-18 23:50:00,50.7,45.7,30.18,SSW,203,13.0,13.0,83,0.00,,,0.00,meteohub,2013-04-19 03:50:00,
2013-04-18 23:55:00,50.9,45.9,30.18,SSW,203,10.0,13.0,83,0.00,,,0.00,meteohub,2013-04-19 03:55:00,